Location: Brienzwiler
(46.7508°N, 8.1014°E)
Time: 07:44:10
(UTC+00:00)

Cosmos 2219 Rocket - Pass Details

Date: 05 July 2020
Orbit: 827 x 847 km, 71.0° (Epoch: 05 August)

Event Time Altitude Azimuth Distance (km) Brightness Sun altitude
Rises 22:13:48 0° 230° (SW) 3,358 5.1 -18.3°
Reaches altitude 10° 22:16:23 10° 239° (WSW) 2,430 4.5 -18.5°
Maximum altitude 22:21:33 38° 307° (NW) 1,258 3.5 -18.8°
Drops below altitude 10° 22:26:46 10° 15° (NNE) 2,453 5.5 -19.0°
Sets 22:29:24 0° 23° (NNE) 3,394 6.2 -19.1°
